This demonstration page uses our WeatherBlox Daily Observations layout. Learn more.

Left ArrowRight Arrow

Hourly Observations for June 3, 2018

Temp ( °F °C ) Dew Point ( °F °C ) Humidity (%) Winds ( mph kmh ) Pressure ( in mb ) Visibility ( mi km ) Precip ( " mm )
12:54 am 00:54 Clear 57 13.9 51 10.6 81 81 N 7 11 30.09 1019 10 16 0.00 0.00
1:54 am 01:54 Clear 60 15.6 50 10 70 70 NNW 7 11 30.09 1019 10 16 0.00 0.00
2:54 am 02:54 Clear 59 15 49 9.4 69 69 Calm 30.09 1019 10 16 0.00 0.00
3:54 am 03:54 Clear 59 15 49 9.4 69 69 WSW 5 7 30.10 1019 10 16 0.00 0.00
4:54 am 04:54 Clear 56 13.3 48 8.9 75 75 NNW 5 7 30.11 1020 10 16 0.00 0.00
5:54 am 05:54 Clear 58 14.4 48 8.9 70 70 WNW 6 9 30.13 1020 10 16 0.00 0.00
6:54 am 06:54 Sunny 58 14.4 50 10 75 75 Calm 30.15 1021 10 16 0.00 0.00
7:54 am 07:54 Sunny 65 18.3 50 10 59 59 NNW 6 9 30.16 1021 10 16 0.00 0.00
8:54 am 08:54 Sunny 71 21.7 50 10 47 47 NW 9 15 30.17 1022 10 16 0.00 0.00
9:54 am 09:54 Sunny 75 23.9 51 10.6 43 43 N 13 20 30.16 1022 10 16 0.00 0.00
10:54 am 10:54 Sunny 77 25 48 8.9 36 36 NNW 15 24 30.16 1022 10 16 0.00 0.00
11:54 am 11:54 Sunny 79 26.1 46 7.8 31 31 NNW 17 28 30.16 1022 10 16 0.00 0.00
12:54 pm 12:54 Sunny 80 26.7 46 7.8 30 30 NNW 13 20 30.17 1022 10 16 0.00 0.00
1:54 pm 13:54 Sunny 82 27.8 47 8.3 29 29 NNW 17 28 30.15 1021 10 16 0.00 0.00
2:54 pm 14:54 Sunny 82 27.8 46 7.8 28 28 NNW 13 20 30.13 1020 10 16 0.00 0.00
3:54 pm 15:54 Sunny 82 27.8 46 7.8 28 28 NW 12 19 30.12 1020 10 16 0.00 0.00
4:54 pm 16:54 Sunny 83 28.3 47 8.3 28 28 NW 9 15 30.10 1019 10 16 0.00 0.00
5:54 pm 17:54 Sunny 82 27.8 49 9.4 32 32 N 7 11 30.08 1019 10 16 0.00 0.00
6:54 pm 18:54 Sunny 82 27.8 46 7.8 28 28 NW 5 7 30.08 1019 10 16 0.00 0.00
7:54 pm 19:54 Sunny 78 25.6 51 10.6 39 39 NNE 6 9 30.07 1018 10 16 0.00 0.00
8:54 pm 20:54 Clear 72 22.2 50 10 46 46 ENE 3 6 30.07 1018 10 16 0.00 0.00
9:54 pm 21:54 Clear 68 20 50 10 53 53 Calm 30.09 1019 10 16 0.00 0.00
10:54 pm 22:54 Clear 66 18.9 55 12.8 68 68 Calm 30.10 1019 10 16 0.00 0.00
11:54 pm 23:54 Clear 61 16.1 54 12.2 78 78 N 3 6 30.10 1019 10 16 0.00 0.00

Powered by AerisWeather